Aeroporto :
LOGIN :

Iscrizione | Disclaimer

   EN    FR    IT 

 










Sommario :    VFR   VFR Marginale   IFR   IFR Intensivo   IFR Molto Intensivo
Visibilità : 
Base nubi : 
>= 8 km
>= 3000ft
5 / 8 km
1000 / 3000 ft
1500m / 5 km
500 / 1000 ft
800 / 1500m
200 / 500 ft
< 800m
< 200 ft
Simboli :   Temporali  Nebbia  Neve Forte  Precipitazioni Forti  Vento > 20 kt
SIGMETs :   Varie  Temporali  Ghiacco  Turbolenza  Onda orograficha  Ceneri Vulcaniche







- Altitudine del aeroporto : 2945 ft
- Codice IATA : RGS


LEBG - Burgos

ULTIMO METAR :
  • 191230Z 06011KT 360V090 9999 FEW025 24/08 Q1025

METARs OBSOLETI :
  • 191200Z 06013KT 020V100 9999 FEW025 23/09 Q1025
  • 191130Z 07012KT 040V100 CAVOK 22/10 Q1025
  • 191100Z 03011KT 360V070 CAVOK 21/11 Q1025
  • 191030Z 03011KT CAVOK 20/11 Q1025
  • 191000Z 03010KT 360V060 CAVOK 19/12 Q1025

TAF TAF LEBG
Valido dal 19 a 12 ore il 19 a 21 ore UTC


191100Z 1912/1921 04010KT CAVOK
PROB40
TEMPO 1913/1918 04015G25KT
Nessun NOTAM noto per questo aeroporto.



MetMap, La meteo Aeronautica in un colpo d'occhio ! - Copyright ORBIFLY Dicembre 2007 - Disclaimer

ORBIFLY MET'MAP TEAM :

Programmazione e sviluppo : Alexandra Zaïnal
Concezione e sviluppo : Baudouin d'Aumeries
Co-Programmazione e sviluppo : Marc-Olivier Méhu
Supporto tecnico e logistico : Manuel Goepfert
Aiuto per la traduzione : Arnaldo La Scala

Contatto : metmap@orbifly.com




FONTI E CREDITI :

   NOAA